Guymon, OK

7:53 PM CDT on October 17, 2017 (GMT -0500)
Guymon Municipal

Weather History for KGUY - November, 2011

Change the Weather History Date:

Saturday, November 12, 2011

  Actual Average Record
Temperature  
Mean Temperature 61 °F 47 °F  
Max Temperature 77 °F 62 °F 77 °F (2011)
Min Temperature 45 °F 32 °F 15 °F (2014)
Degree Days  
Heating Degree Days 4 18  
Month to date heating degree days 211 186  
Since 1 July heating degree days 440 495  
Cooling Degree Days 0 0  
Month to date cooling degree days 0 0  
Year to date cooling degree days 2163 1481  
Growing Degree Days 12 (Base 50)    
Moisture  
Dew Point 24 °F    
Average Humidity 32    
Maximum Humidity 49    
Minimum Humidity 14    
Precipitation  
Precipitation 0.00 in 0.02 in 0.12 in (2010)
Month to date precipitation 0.52 0.25  
Year to date precipitation 7.18 18.38  
Snow  
Snow 0.00 in - - ()
Month to date snowfall T  
Since 1 July snowfall 1.5  
Since 1 September snowfall 1.5  
Snow Depth 0.00 in    
Sea Level Pressure  
Sea Level Pressure 29.54 in    
Wind  
Wind Speed 16 mph (WSW)    
Max Wind Speed 25 mph    
Max Gust Speed 32 mph    
Visibility 10 miles    
Events      
T = Trace of Precipitation, MM = Missing Value Source: NWS Daily Summary

Daily Weather History Graph

Daily Weather History Graph

Search for Another Location

Airport or City:

Trip Planner

Search our weather history database for the weather conditions in past years. The results will help you decide how hot, cold, wet, or windy it might be!

Date:

Astronomy

Nov. 12, 2011 Rise Set
Actual Time 7:20 AM CST 5:39 PM CST
Civil Twilight 6:53 AM CST 6:06 PM CST
Nautical Twilight 6:22 AM CST 6:37 PM CST
Astronomical Twilight 5:51 AM CST 7:08 PM CST
Moon 6:59 PM CST (11/12) 9:01 AM CST (11/12)
Length of Visible Light 11h 13m
Length of Day
10h 18m
Full, 97% of the Moon is Illuminated
Nov 12
Full
Nov 18
Last Quarter
Nov 25
New
Dec 2
First Quarter
Dec 10
Full

Hourly Weather History & Observations

Time (CST) Temp. Dew Point Humidity Pressure Visibility Wind Dir Wind Speed Gust Speed Precip Events Conditions
12:53 AM 48.0 °F 25.0 °F 41% 29.62 in 10.0 mi SW 11.5 mph - N/A   Clear
1:53 AM 48.9 °F 24.1 °F 38% 29.57 in 10.0 mi SSW 11.5 mph - N/A   Clear
2:53 AM 51.1 °F 21.0 °F 31% 29.53 in 10.0 mi SW 25.3 mph 32.2 mph N/A   Clear
3:53 AM 50.0 °F 19.9 °F 31% 29.53 in 10.0 mi SW 18.4 mph 27.6 mph N/A   Clear
4:53 AM 48.9 °F 21.0 °F 33% 29.52 in 10.0 mi SW 17.3 mph - N/A   Clear
5:53 AM 48.0 °F 21.0 °F 34% 29.52 in 10.0 mi WSW 16.1 mph - N/A   Clear
6:53 AM 46.9 °F 21.9 °F 37% 29.54 in 10.0 mi WSW 19.6 mph 26.5 mph N/A   Clear
7:53 AM 48.9 °F 23.0 °F 36% 29.57 in 10.0 mi WSW 18.4 mph - N/A   Clear
8:53 AM 51.1 °F 23.0 °F 33% 29.59 in 10.0 mi WSW 16.1 mph - N/A   Clear
9:53 AM 57.0 °F 25.0 °F 29% 29.59 in 10.0 mi WSW 17.3 mph - N/A   Clear
10:53 AM 66.0 °F 26.1 °F 22% 29.58 in 10.0 mi West 12.7 mph - N/A   Clear
11:53 AM 70.0 °F 23.0 °F 17% 29.57 in 10.0 mi West 17.3 mph 25.3 mph N/A   Clear
12:53 PM 72.0 °F 24.1 °F 17% 29.54 in 10.0 mi West 11.5 mph - N/A   Clear
1:53 PM 75.0 °F 24.1 °F 15% 29.50 in 10.0 mi West 11.5 mph 18.4 mph N/A   Clear
2:53 PM 77.0 °F 25.0 °F 15% 29.48 in 10.0 mi West 9.2 mph - N/A   Clear
3:53 PM 77.0 °F 24.1 °F 14% 29.49 in 10.0 mi WSW 11.5 mph - N/A   Clear
4:53 PM 71.1 °F 26.1 °F 19% 29.50 in 10.0 mi SW 12.7 mph - N/A   Clear
5:53 PM 66.9 °F 24.1 °F 20% 29.51 in 10.0 mi SW 18.4 mph 24.2 mph N/A   Clear
6:53 PM 61.0 °F 24.1 °F 24% 29.55 in 10.0 mi SSW 12.7 mph - N/A   Clear
7:53 PM 60.1 °F 24.1 °F 25% 29.54 in 10.0 mi SW 15.0 mph - N/A   Clear
8:53 PM 57.9 °F 24.1 °F 27% 29.54 in 10.0 mi SW 19.6 mph - N/A   Clear
9:53 PM 57.0 °F 26.1 °F 30% 29.52 in 10.0 mi SW 19.6 mph 25.3 mph N/A   Clear
10:53 PM 57.9 °F 27.0 °F 31% 29.49 in 10.0 mi SW 19.6 mph - N/A   Clear
11:53 PM 57.9 °F 28.0 °F 32% 29.48 in 10.0 mi SW 20.7 mph 28.8 mph N/A   Clear